Year,Month,Day,Hour,Minute,Value (Times are PST for temperature in C)
2014,10,10,13,35,14.30
2014,10,10,13,36,14.30
2014,10,10,13,38,14.40
2014,10,10,13,39,14.40
2014,10,10,13,40,14.50
2014,10,10,13,41,14.50
2014,10,10,13,42,14.50
2014,10,10,13,43,14.50
2014,10,10,13,44,14.60
2014,10,10,13,45,14.60
2014,10,10,13,46,14.60
2014,10,10,13,47,14.60
2014,10,10,13,48,14.60
2014,10,10,13,49,14.60
2014,10,10,13,50,14.60
2014,10,10,13,51,14.60
2014,10,10,13,52,14.60
2014,10,10,13,53,14.60
2014,10,10,13,54,14.60
2014,10,10,13,55,14.60
2014,10,10,13,56,14.60
2014,10,10,13,57,14.60
2014,10,10,13,58,14.60
2014,10,10,13,59,14.60
2014,10,10,14,00,14.60
2014,10,10,14,01,14.60
2014,10,10,14,02,14.60
2014,10,10,14,03,14.60
2014,10,10,14,04,14.60
2014,10,10,14,05,14.60
2014,10,10,14,06,14.70
2014,10,10,14,07,14.70
2014,10,10,14,08,14.70
2014,10,10,14,09,14.70
2014,10,10,14,10,14.70
2014,10,10,14,11,14.70
2014,10,10,14,12,14.70
2014,10,10,14,13,14.60
2014,10,10,14,14,14.60
2014,10,10,14,15,14.60
2014,10,10,14,16,14.50
2014,10,10,14,17,14.50
2014,10,10,14,18,14.50
2014,10,10,14,19,14.50
2014,10,10,14,20,14.60
2014,10,10,14,21,14.60
2014,10,10,14,22,14.60
2014,10,10,14,23,14.60
2014,10,10,14,24,14.60
2014,10,10,14,25,14.70
2014,10,10,14,26,14.70
2014,10,10,14,27,14.70
2014,10,10,14,28,14.70
2014,10,10,14,29,14.70
2014,10,10,14,30,14.60
2014,10,10,14,31,14.70
2014,10,10,14,32,14.70
2014,10,10,14,33,14.70
2014,10,10,14,34,14.70
2014,10,10,14,35,14.70
2014,10,10,14,36,14.70
2014,10,10,14,37,14.70
2014,10,10,14,38,14.60
2014,10,10,14,39,14.60
2014,10,10,14,40,14.60
2014,10,10,14,41,14.60
2014,10,10,14,42,14.60
2014,10,10,14,43,14.60
2014,10,10,14,44,14.60
2014,10,10,14,45,14.60
2014,10,10,14,46,14.60
2014,10,10,14,47,14.60
2014,10,10,14,48,14.60
2014,10,10,14,49,14.60
2014,10,10,14,50,14.60
2014,10,10,14,51,14.60
2014,10,10,14,52,14.50
2014,10,10,14,53,14.50
2014,10,10,14,54,14.50
2014,10,10,14,55,14.40
2014,10,10,14,56,14.40
2014,10,10,14,57,14.40
2014,10,10,14,58,14.40
2014,10,10,14,59,14.40
2014,10,10,15,00,14.40
2014,10,10,15,01,14.30
2014,10,10,15,02,14.30
2014,10,10,15,03,14.20
2014,10,10,15,04,14.20
2014,10,10,15,05,14.20
2014,10,10,15,06,14.20
2014,10,10,15,07,14.20
2014,10,10,15,08,14.30
2014,10,10,15,09,14.30
2014,10,10,15,10,14.30
2014,10,10,15,11,14.30
2014,10,10,15,12,14.30
2014,10,10,15,13,14.30
2014,10,10,15,14,14.30
2014,10,10,15,15,14.30
2014,10,10,15,16,14.30
2014,10,10,15,17,14.30
2014,10,10,15,18,14.30
2014,10,10,15,19,14.30
2014,10,10,15,20,14.30
2014,10,10,15,21,14.30
2014,10,10,15,22,14.30
2014,10,10,15,23,14.30
2014,10,10,15,24,14.30
2014,10,10,15,25,14.30
2014,10,10,15,26,14.30
2014,10,10,15,27,14.40
2014,10,10,15,28,14.40
2014,10,10,15,29,14.40
2014,10,10,15,30,14.40
2014,10,10,15,31,14.40
2014,10,10,15,32,14.40
2014,10,10,15,33,14.40
2014,10,10,15,34,14.50
2014,10,10,15,35,14.50
2014,10,10,15,36,14.50
2014,10,10,15,37,14.50
2014,10,10,15,38,14.50
2014,10,10,15,39,14.50
2014,10,10,15,40,14.50
2014,10,10,15,41,14.50
2014,10,10,15,42,14.50
2014,10,10,15,43,14.50
2014,10,10,15,44,14.50
2014,10,10,15,45,14.50
2014,10,10,15,46,14.50
2014,10,10,15,47,14.50
2014,10,10,15,48,14.50
2014,10,10,15,49,14.50
2014,10,10,15,50,14.50
2014,10,10,15,51,14.50
2014,10,10,15,52,14.50
2014,10,10,15,53,14.50
2014,10,10,15,54,14.50
2014,10,10,15,55,14.50
2014,10,10,15,56,14.50
2014,10,10,15,57,14.50
2014,10,10,15,58,14.50
2014,10,10,15,59,14.50
2014,10,10,16,00,14.50
2014,10,10,16,01,14.50
2014,10,10,16,02,14.50
2014,10,10,16,03,14.50
2014,10,10,16,04,14.50
2014,10,10,16,05,14.50
2014,10,10,16,06,14.50
2014,10,10,16,07,14.40
2014,10,10,16,08,14.40
2014,10,10,16,09,14.30
2014,10,10,16,10,14.30
2014,10,10,16,11,14.30
2014,10,10,16,12,14.20
2014,10,10,16,13,14.20
2014,10,10,16,14,14.20
2014,10,10,16,15,14.20
2014,10,10,16,16,14.20
2014,10,10,16,17,14.20
2014,10,10,16,18,14.20
2014,10,10,16,19,14.20
2014,10,10,16,20,14.20
2014,10,10,16,21,14.20
2014,10,10,16,22,14.20
2014,10,10,16,23,14.20
2014,10,10,16,24,14.20
2014,10,10,16,25,14.20
2014,10,10,16,26,14.20
2014,10,10,16,27,14.20
2014,10,10,16,28,14.30
2014,10,10,16,29,14.30
2014,10,10,16,30,14.30
2014,10,10,16,31,14.30
2014,10,10,16,32,14.30
2014,10,10,16,33,14.30
2014,10,10,16,34,14.40
2014,10,10,16,35,14.40
2014,10,10,16,36,14.40
2014,10,10,16,37,14.40
2014,10,10,16,38,14.40
2014,10,10,16,39,14.40
2014,10,10,16,40,14.50
2014,10,10,16,41,14.50
2014,10,10,16,42,14.50
2014,10,10,16,43,14.50
2014,10,10,16,44,14.50
2014,10,10,16,45,14.50
2014,10,10,16,46,14.50
2014,10,10,16,47,14.60
2014,10,10,16,48,14.60
2014,10,10,16,49,14.60
2014,10,10,16,50,14.60
2014,10,10,16,51,14.60
2014,10,10,16,52,14.60
2014,10,10,16,53,14.60
2014,10,10,16,54,14.60
2014,10,10,16,55,14.60
2014,10,10,16,56,14.60
2014,10,10,16,57,14.60
2014,10,10,16,58,14.60
2014,10,10,16,59,14.60
2014,10,10,17,00,14.50
2014,10,10,17,01,14.50
2014,10,10,17,02,14.50
2014,10,10,17,03,14.50
2014,10,10,17,04,14.40
2014,10,10,17,05,14.40
2014,10,10,17,06,14.40
2014,10,10,17,07,14.40
2014,10,10,17,08,14.30
2014,10,10,17,09,14.30
2014,10,10,17,10,14.30
2014,10,10,17,11,14.30
2014,10,10,17,12,14.30
2014,10,10,17,13,14.30
2014,10,10,17,14,14.30
2014,10,10,17,15,14.20
2014,10,10,17,16,14.20
2014,10,10,17,17,14.10
2014,10,10,17,18,14.10
2014,10,10,17,19,14.00
2014,10,10,17,20,14.00
2014,10,10,17,21,13.90
2014,10,10,17,22,13.90
2014,10,10,17,23,13.80
2014,10,10,17,24,13.80
2014,10,10,17,25,13.70
2014,10,10,17,26,13.70
2014,10,10,17,27,13.70
2014,10,10,17,28,13.70
2014,10,10,17,29,13.70
2014,10,10,17,30,13.70
2014,10,10,17,31,13.70
2014,10,10,17,32,13.70
2014,10,10,17,33,13.60
2014,10,10,17,34,13.60
2014,10,10,17,35,13.60
2014,10,10,17,36,13.60
2014,10,10,17,37,13.60
2014,10,10,17,38,13.60
2014,10,10,17,39,13.60
2014,10,10,17,40,13.60
2014,10,10,17,41,13.50
2014,10,10,17,42,13.50
2014,10,10,17,43,13.50
2014,10,10,17,44,13.50
2014,10,10,17,45,13.50
2014,10,10,17,46,13.50
2014,10,10,17,47,13.50
2014,10,10,17,48,13.50
2014,10,10,17,49,13.50
2014,10,10,17,50,13.50
2014,10,10,17,51,13.50
2014,10,10,17,52,13.50
2014,10,10,17,53,13.60
2014,10,10,17,54,13.60
2014,10,10,17,55,13.60
2014,10,10,17,56,13.60
2014,10,10,17,57,13.60
2014,10,10,17,58,13.60
2014,10,10,17,59,13.60
2014,10,10,18,00,13.60
2014,10,10,18,01,13.50
2014,10,10,18,02,13.50
2014,10,10,18,03,13.50
2014,10,10,18,04,13.50
2014,10,10,18,05,13.50
2014,10,10,18,06,13.50
2014,10,10,18,07,13.50
2014,10,10,18,08,13.50
2014,10,10,18,09,13.50
2014,10,10,18,10,13.50
2014,10,10,18,11,13.50
2014,10,10,18,12,13.50
2014,10,10,18,13,13.50
2014,10,10,18,14,13.60
2014,10,10,18,15,13.50
2014,10,10,18,16,13.50
2014,10,10,18,17,13.50
2014,10,10,18,18,13.50
2014,10,10,18,19,13.50
2014,10,10,18,20,13.50
2014,10,10,18,21,13.50
2014,10,10,18,22,13.50
2014,10,10,18,23,13.50
2014,10,10,18,24,13.50
2014,10,10,18,25,13.50
2014,10,10,18,26,13.50
2014,10,10,18,27,13.50
2014,10,10,18,28,13.50
2014,10,10,18,29,13.50
2014,10,10,18,30,13.50
2014,10,10,18,31,13.50
2014,10,10,18,32,13.50
2014,10,10,18,33,13.50
2014,10,10,18,34,13.50
2014,10,10,18,35,13.50
2014,10,10,18,36,13.50
2014,10,10,18,37,13.50
2014,10,10,18,38,13.50
2014,10,10,18,39,13.50
2014,10,10,18,40,13.50
2014,10,10,18,41,13.50
2014,10,10,18,42,13.50
2014,10,10,18,43,13.50
2014,10,10,18,44,13.50
2014,10,10,18,45,13.50
2014,10,10,18,46,13.50
2014,10,10,18,47,13.50
2014,10,10,18,48,13.50
2014,10,10,18,49,13.60
2014,10,10,18,50,13.60
2014,10,10,18,51,13.60
2014,10,10,18,52,13.60
2014,10,10,18,53,13.60
2014,10,10,18,54,13.50
2014,10,10,18,55,13.50
2014,10,10,18,56,13.50
2014,10,10,18,57,13.60
2014,10,10,18,58,13.60
2014,10,10,18,59,13.60
2014,10,10,19,00,13.60
2014,10,10,19,01,13.60
2014,10,10,19,02,13.60
2014,10,10,19,03,13.60
2014,10,10,19,04,13.60
2014,10,10,19,05,13.60
2014,10,10,19,06,13.60
2014,10,10,19,07,13.60
2014,10,10,19,08,13.60
2014,10,10,19,09,13.60
2014,10,10,19,10,13.60
2014,10,10,19,11,13.60
2014,10,10,19,12,13.60
2014,10,10,19,13,13.60
2014,10,10,19,14,13.60
2014,10,10,19,15,13.60
2014,10,10,19,16,13.60
2014,10,10,19,17,13.60
2014,10,10,19,18,13.60
2014,10,10,19,19,13.60
2014,10,10,19,20,13.60
2014,10,10,19,21,13.60
2014,10,10,19,22,13.60
2014,10,10,19,23,13.60
2014,10,10,19,24,13.60
2014,10,10,19,25,13.60
2014,10,10,19,26,13.60
2014,10,10,19,27,13.60
2014,10,10,19,28,13.60
2014,10,10,19,29,13.60
2014,10,10,19,30,13.60
2014,10,10,19,31,13.60
2014,10,10,19,32,13.60
2014,10,10,19,33,13.60
2014,10,10,19,34,13.50
2014,10,10,19,35,13.50
2014,10,10,19,36,13.50
2014,10,10,19,37,13.50
2014,10,10,19,38,13.50
2014,10,10,19,39,13.50
2014,10,10,19,40,13.50
2014,10,10,19,41,13.50
2014,10,10,19,42,13.50
2014,10,10,19,43,13.50
2014,10,10,19,44,13.50
2014,10,10,19,45,13.50
2014,10,10,19,46,13.50
2014,10,10,19,47,13.50
2014,10,10,19,48,13.50
2014,10,10,19,49,13.50
2014,10,10,19,50,13.50
2014,10,10,19,51,13.40
2014,10,10,19,52,13.40
2014,10,10,19,53,13.40
2014,10,10,19,54,13.40
2014,10,10,19,55,13.40
2014,10,10,19,56,13.40
2014,10,10,19,57,13.40
2014,10,10,19,58,13.40
2014,10,10,19,59,13.40
2014,10,10,20,00,13.40
2014,10,10,20,01,13.40
2014,10,10,20,02,13.40
2014,10,10,20,03,13.40
2014,10,10,20,04,13.40
2014,10,10,20,05,13.40
2014,10,10,20,06,13.40
2014,10,10,20,07,13.40
2014,10,10,20,08,13.50
2014,10,10,20,09,13.50
2014,10,10,20,10,13.50
2014,10,10,20,11,13.50
2014,10,10,20,12,13.60
2014,10,10,20,13,13.60
2014,10,10,20,14,13.60
2014,10,10,20,15,13.60
2014,10,10,20,16,13.60
2014,10,10,20,17,13.60
2014,10,10,20,18,13.60
2014,10,10,20,19,13.60
2014,10,10,20,20,13.60
2014,10,10,20,21,13.60
2014,10,10,20,22,13.70
2014,10,10,20,23,13.70
2014,10,10,20,24,13.70
2014,10,10,20,25,13.70
2014,10,10,20,26,13.70
2014,10,10,20,27,13.70
2014,10,10,20,28,13.70
2014,10,10,20,29,13.70
2014,10,10,20,30,13.70
2014,10,10,20,31,13.70
2014,10,10,20,32,13.70
2014,10,10,20,33,13.70
2014,10,10,20,34,13.70
2014,10,10,20,35,13.70
2014,10,10,20,36,13.70
2014,10,10,20,37,13.70
2014,10,10,20,38,13.60
2014,10,10,20,39,13.60
2014,10,10,20,40,13.60
2014,10,10,20,41,13.60
2014,10,10,20,42,13.60
2014,10,10,20,43,13.60
2014,10,10,20,44,13.60
2014,10,10,20,45,13.60
2014,10,10,20,46,13.60
2014,10,10,20,47,13.50
2014,10,10,20,48,13.50
2014,10,10,20,49,13.50
2014,10,10,20,50,13.50
2014,10,10,20,51,13.50
2014,10,10,20,52,13.50
2014,10,10,20,53,13.40
2014,10,10,20,54,13.40
2014,10,10,20,55,13.40
2014,10,10,20,56,13.40
2014,10,10,20,57,13.40
2014,10,10,20,58,13.40
2014,10,10,20,59,13.40
2014,10,10,21,00,13.50
2014,10,10,21,01,13.50
2014,10,10,21,02,13.50
2014,10,10,21,03,13.50
2014,10,10,21,04,13.50
2014,10,10,21,05,13.50
2014,10,10,21,06,13.50
2014,10,10,21,07,13.50
2014,10,10,21,08,13.50
2014,10,10,21,09,13.50
2014,10,10,21,10,13.50
2014,10,10,21,11,13.60
2014,10,10,21,12,13.60
2014,10,10,21,13,13.60
2014,10,10,21,14,13.60
2014,10,10,21,15,13.60
2014,10,10,21,16,13.60
2014,10,10,21,17,13.60
2014,10,10,21,18,13.60
2014,10,10,21,19,13.60
2014,10,10,21,20,13.60
2014,10,10,21,21,13.60
2014,10,10,21,22,13.50
2014,10,10,21,23,13.60
2014,10,10,21,24,13.50
2014,10,10,21,25,13.50
2014,10,10,21,26,13.50
2014,10,10,21,27,13.50
2014,10,10,21,28,13.50
2014,10,10,21,29,13.50
2014,10,10,21,30,13.50
2014,10,10,21,31,13.50
2014,10,10,21,32,13.60
2014,10,10,21,33,13.60
2014,10,10,21,34,13.60
2014,10,10,21,35,13.60
2014,10,10,21,36,13.60
2014,10,10,21,37,13.60
2014,10,10,21,38,13.50
2014,10,10,21,39,13.60
2014,10,10,21,40,13.50
2014,10,10,21,41,13.50
2014,10,10,21,42,13.50
2014,10,10,21,43,13.50
2014,10,10,21,44,13.50
2014,10,10,21,45,13.50
2014,10,10,21,46,13.50
2014,10,10,21,47,13.50
2014,10,10,21,48,13.50
2014,10,10,21,49,13.50
2014,10,10,21,50,13.50
2014,10,10,21,51,13.50
2014,10,10,21,52,13.50
2014,10,10,21,53,13.50
2014,10,10,21,54,13.60
2014,10,10,21,55,13.50
2014,10,10,21,56,13.60
2014,10,10,21,57,13.50
2014,10,10,21,58,13.60
2014,10,10,21,59,13.60
2014,10,10,22,00,13.60
2014,10,10,22,01,13.60
2014,10,10,22,02,13.60
2014,10,10,22,03,13.60
2014,10,10,22,04,13.50
2014,10,10,22,05,13.50
2014,10,10,22,06,13.50
2014,10,10,22,07,13.50
2014,10,10,22,08,13.50
2014,10,10,22,09,13.50
2014,10,10,22,10,13.50
2014,10,10,22,11,13.50
2014,10,10,22,12,13.50
2014,10,10,22,13,13.50
2014,10,10,22,14,13.50
2014,10,10,22,15,13.50
2014,10,10,22,16,13.50
2014,10,10,22,17,13.50
2014,10,10,22,18,13.50
2014,10,10,22,19,13.50
2014,10,10,22,20,13.50
2014,10,10,22,21,13.50
2014,10,10,22,22,13.50
2014,10,10,22,23,13.50
2014,10,10,22,24,13.50
2014,10,10,22,25,13.50
2014,10,10,22,26,13.50
2014,10,10,22,27,13.50
2014,10,10,22,28,13.50
2014,10,10,22,29,13.50
2014,10,10,22,30,13.50
2014,10,10,22,31,13.50
2014,10,10,22,32,13.50
2014,10,10,22,33,13.50
2014,10,10,22,34,13.50
2014,10,10,22,35,13.40
2014,10,10,22,36,13.40
2014,10,10,22,37,13.40
2014,10,10,22,38,13.40
2014,10,10,22,39,13.40
2014,10,10,22,40,13.40
2014,10,10,22,41,13.40
2014,10,10,22,42,13.40
2014,10,10,22,43,13.40
2014,10,10,22,44,13.40
2014,10,10,22,45,13.40
2014,10,10,22,46,13.40
2014,10,10,22,47,13.40
2014,10,10,22,48,13.40
2014,10,10,22,49,13.40
2014,10,10,22,50,13.40
2014,10,10,22,51,13.30
2014,10,10,22,52,13.30
2014,10,10,22,53,13.30
2014,10,10,22,54,13.30
2014,10,10,22,55,13.30
2014,10,10,22,56,13.30
2014,10,10,22,57,13.30
2014,10,10,22,58,13.30
2014,10,10,22,59,13.30
2014,10,10,23,00,13.30
2014,10,10,23,01,13.30
2014,10,10,23,02,13.30
2014,10,10,23,03,13.30
2014,10,10,23,04,13.30
2014,10,10,23,05,13.30
2014,10,10,23,06,13.30
2014,10,10,23,07,13.30
2014,10,10,23,08,13.30
2014,10,10,23,09,13.40
2014,10,10,23,10,13.40
2014,10,10,23,11,13.40
2014,10,10,23,12,13.40
2014,10,10,23,13,13.40
2014,10,10,23,14,13.40
2014,10,10,23,15,13.40
2014,10,10,23,16,13.30
2014,10,10,23,17,13.30
2014,10,10,23,18,13.30
2014,10,10,23,19,13.30
2014,10,10,23,20,13.30
2014,10,10,23,21,13.30
2014,10,10,23,22,13.30
2014,10,10,23,23,13.30
2014,10,10,23,24,13.30
2014,10,10,23,25,13.30
2014,10,10,23,26,13.30
2014,10,10,23,27,13.20
2014,10,10,23,28,13.20
2014,10,10,23,29,13.20
2014,10,10,23,30,13.20
2014,10,10,23,31,13.20
2014,10,10,23,32,13.20
2014,10,10,23,33,13.20
2014,10,10,23,34,13.20
2014,10,10,23,35,13.20
2014,10,10,23,36,13.10
2014,10,10,23,37,13.10
2014,10,10,23,38,13.10
2014,10,10,23,39,13.10
2014,10,10,23,40,13.10
2014,10,10,23,41,13.10
2014,10,10,23,42,13.00
2014,10,10,23,43,13.00
2014,10,10,23,44,13.00
2014,10,10,23,45,13.00
2014,10,10,23,46,13.00
2014,10,10,23,47,13.00
2014,10,10,23,48,13.00
2014,10,10,23,49,13.00
2014,10,10,23,50,13.00
2014,10,10,23,51,13.00
2014,10,10,23,52,13.00
2014,10,10,23,53,13.00
2014,10,10,23,54,13.00
2014,10,10,23,55,13.00
2014,10,10,23,56,13.00
2014,10,10,23,57,13.00
2014,10,10,23,58,12.90
2014,10,10,23,59,12.90
